Location: Newark
(43.5831°N, 21.3381°E)
Time: 14:52:14
(UTC+00:00)

Envisat - Pass Details

Date: 16 December 2019
Orbit: 764 x 766 km, 98.1° (Epoch: 18 January)

Event Time Altitude Azimuth Distance (km) Brightness Sun altitude
Rises 17:12:05 0° 190° (S) 3,219 6.5 -23.2°
Reaches altitude 10° 17:14:34 10° 199° (SSW) 2,297 5.8 -23.6°
Maximum altitude 17:19:09 34° 264° (W) 1,248 4.6 -24.4°
Drops below altitude 10° 17:23:46 10° 329° (NNW) 2,312 5.7 -25.3°
Sets 17:26:18 0° 338° (NNW) 3,243 6.4 -25.7°
